Location: Central Coast
(33.3208°S, 151.2336°E)
Time: 18:44:04
(UTC+10:00)

CUTE-I - Visible Passes

Search period start: 21 May 2018 00:00
Search period end: 31 May 2018 00:00
Orbit: 810 x 826 km, 98.7° (Epoch: 20 May)

Date Brightness Start Highest point End Pass type
(mag) Time Alt. Az. Time Alt. Az. Time Alt. Az.
21 May ? 04:28:25 10° ENE 04:32:23 21° ESE 04:36:22 10° SSE visible
21 May ? 06:07:01 10° N 06:12:03 41° W 06:17:11 10° SSW visible
21 May ? 18:27:56 10° S 18:33:22 74° WSW 18:38:43 10° NNW visible
22 May ? 04:08:51 10° E 04:11:19 13° ESE 04:13:49 10° SE visible
22 May ? 05:45:21 10° N 05:50:41 68° WNW 05:56:07 10° SSW visible
22 May ? 18:06:39 10° SSE 18:12:05 70° ENE 18:17:25 10° N visible
22 May ? 19:49:03 10° SW 19:51:25 13° WSW 19:53:48 10° W visible
23 May ? 05:24:02 10° NNE 05:29:23 75° ESE 05:34:50 10° S visible
23 May ? 17:45:35 10° SSE 17:50:43 42° E 17:55:46 10° N visible
23 May ? 19:26:26 10° SSW 19:30:23 21° WSW 19:34:18 10° WNW visible
24 May ? 05:03:03 10° NE 05:08:10 46° ESE 05:13:21 10° S visible
24 May ? 17:24:48 10° SE 17:29:18 26° E 17:33:42 10° NNE visible
24 May ? 19:04:29 10° S 19:09:16 33° WSW 19:14:00 10° NW visible
25 May ? 04:42:25 10° NE 04:46:59 29° ESE 04:51:37 10° S visible
25 May ? 18:42:49 10° S 18:48:05 52° WSW 18:53:16 10° NNW visible
26 May ? 04:22:17 10° ENE 04:25:54 19° ESE 04:29:33 10° SSE visible
26 May ? 06:00:19 10° N 06:05:29 48° W 06:10:45 10° SSW visible
26 May ? 18:21:23 10° SSE 18:26:50 85° WSW 18:32:12 10° NNW visible
27 May ? 04:03:13 10° E 04:04:53 11° ESE 04:06:33 10° SE visible
27 May ? 05:38:46 10° N 05:44:08 79° WNW 05:49:37 10° SSW visible
27 May ? 18:00:09 10° SSE 18:05:31 60° E 18:10:48 10° N visible
27 May ? 19:41:59 10° SSW 19:44:58 15° WSW 19:47:56 10° W visible
28 May ? 05:17:33 10° NNE 05:22:52 65° ESE 05:28:15 10° S visible
28 May ? 17:39:09 10° SSE 17:44:08 36° E 17:49:01 10° NNE visible
28 May ? 19:19:40 10° SSW 19:23:54 24° WSW 19:28:06 10° WNW visible
29 May ? 04:56:40 10° NE 05:01:39 40° ESE 05:06:42 10° S visible
29 May ? 17:18:31 10° SE 17:22:42 22° E 17:26:48 10° NE visible
29 May ? 18:57:48 10° S 19:02:46 37° WSW 19:07:39 10° NW visible
30 May ? 04:36:10 10° ENE 04:40:30 25° ESE 04:44:52 10° SSE visible
30 May ? 06:15:27 10° NNW 06:20:18 34° W 06:25:14 10° SSW visible
30 May ? 18:36:13 10° S 18:41:34 61° WSW 18:46:49 10° NNW visible
